Regional Weather Roundup
Issued by NWS

Home | Current Version | Previous Version | Text Only | Print | Product List | Glossary Off
Versions: 1 2 3 4 5 6 7 8 9 10 11 12 13 14 15 16 17 18 19 20 21 22 23 24 25 26 27 28 29 30 31 32 33 34 35 36 37 38 39 40 41 42 43 44 45 46 47 48 49 50

000
ASUS43 KFSD 011510
RWRSD

WEATHER ROUNDUP FOR SOUTH DAKOTA
NATIONAL WEATHER SERVICE SIOUX FALLS SD
1000 AM CDT MON SEP 01 2014

NOTE: "FAIR" INDICATES FEW OR NO CLOUDS BELOW 12,000 FEET WITH NO
SIGNIFICANT WEATHER AND/OR OBSTRUCTIONS TO VISIBILITY.


SDZ001>005-009-010-012>017-011600-
NORTHWEST AND NORTH CENTRAL SOUTH DAKOTA

CITY           SKY/WX    TMP DP  RH WIND       PRES   REMARKS
BUFFALO          N/A     60  49  66 W15       29.83R
FAITH            N/A     62  51  67 W13       29.87R
MOBRIDGE       SUNNY     61  54  77 NW6       29.80S
$$

SDZ012>016-024>037-041>051-057-063-072>074-011600-
SOUTHWEST AND SOUTH CENTRAL SOUTH DAKOTA

CITY           SKY/WX    TMP DP  RH WIND       PRES   REMARKS
RAPID CTY ARPT PTSUNNY   65  51  60 NW6       29.93S
PIERRE         SUNNY     63  55  75 W10       29.84R
CUSTER         CLOUDY    56  43  61 W3        30.02R
ELLSWORTH AFB  PTSUNNY   63  50  64 SW5       29.93S
PHILIP         SUNNY     62  54  74 W13       29.89S
PINE RIDGE     MOSUNNY   60  53  77 W5        29.96S
WINNER         FAIR      65  55  70 W10       29.88R
$$

SDZ004>011-016>023-039-040-011600-
NORTHEAST SOUTH DAKOTA

CITY           SKY/WX    TMP DP  RH WIND       PRES   REMARKS
ABERDEEN       SUNNY     65  57  75 W7        29.78R
WATERTOWN      SUNNY     67  58  72 NW8       29.78R
SISSETON         N/A     69  58  67 N10       29.74R
$$

SDZ017-020-022-023-036>040-048>070-011600-
SOUTHEAST SOUTH DAKOTA

CITY           SKY/WX    TMP DP  RH WIND       PRES   REMARKS
SIOUX FALLS    MOSUNNY   70  64  81 W8        29.79R
HURON          SUNNY     65  56  72 NW12      29.80R
CHAMBERLAIN    SUNNY     61  55  81 W7        29.86R
MITCHELL       SUNNY     66  60  81 NW7       29.82R
YANKTON        SUNNY     66  61  82 W9        29.81R
$$

ABBREVIATIONS USED IN REMARKS
   TC - TEMPERATURE IN CELSIUS
  WCI - WIND CHILL INDEX
   HX - HEAT INDEX
  VSB - VISIBILITY




USA.gov is the U.S. government's official web portal to all federal, state and local government web resources and services.